Temperature
24 23 22 23 29 29 27 27 27 26 26 25 24 25 25 24 24 22 19 19 18 18 18 17 18 18 18 18 18 18 18 18 18 18 18 18 18 18 18 17 17 17 17 17 18 18 18 18 18
23 23 23 28 30 28 26 27 26 26 25 25 24 24 24 23 22 20 19 18 18 18 18 17 18 18 18 18 18 18 18 18 18 18 18 18 17 18 18 17 17 17 17 17 18 17 17 17 17
23 23 27 31 29 28 27 27 26 26 25 25 24 24 23 22 21 20 19 18 18 18 17 17 18 18 18 18 18 18 18 18 18 18 18 18 18 18 18 17 17 17 17 17 17 17 17 17 17
24 26 29 30 28 28 28 27 27 26 25 25 25 24 22 21 21 20 19 18 18 18 18 17 18 18 18 18 18 18 18 18 18 18 18 18 17 17 17 17 17 17 17 17 17 17 17 17 17
25 30 31 29 28 28 28 27 27 27 26 25 25 24 22 20 20 19 19 19 19 18 18 17 18 18 18 18 18 18 18 18 18 17 17 17 17 17 17 17 17 17 17 17 17 17 17 17 17
29 32 30 29 28 28 28 27 27 26 25 25 25 24 22 20 20 19 19 19 19 19 18 18 18 18 18 18 18 18 18 18 18 17 17 17 17 17 17 17 17 17 17 17 17 17 17 17 17
31 32 30 29 28 28 28 27 27 26 26 25 25 25 22 21 20 19 19 19 19 19 18 18 18 18 18 18 18 18 18 18 18 17 17 17 17 17 17 17 17 17 17 17 17 17 17 17 17
30 32 31 30 29 28 28 27 26 26 25 24 24 25 23 21 20 19 19 19 19 19 18 18 18 18 17 17 18 18 18 18 18 17 17 17 17 17 17 17 17 17 17 17 17 17 17 17 17
29 32 30 30 30 29 28 28 26 26 25 24 24 24 22 20 20 20 19 19 19 18 18 18 18 18 18 17 17 17 18 18 17 17 17 17 17 17 17 17 17 17 17 17 17 17 17 17 17
31 31 30 31 31 30 28 28 27 26 26 25 24 22 21 20 20 20 20 20 19 18 18 18 18 18 18 18 17 17 17 17 17 17 17 17 17 17 17 17 17 17 17 17 17 17 17 17 17
32 31 31 30 30 29 28 28 27 28 27 26 24 23 22 21 21 21 20 20 19 19 18 18 18 17 18 18 17 17 17 17 17 17 17 17 17 17 17 17 17 17 17 17 17 17 17 17 17
32 31 30 30 29 29 29 28 28 28 26 25 24 23 22 22 21 21 20 20 19 19 18 18 18 17 17 18 18 17 17 17 17 17 17 17 17 17 17 17 17 17 17 17 17 17 17 17 17
32 31 30 30 29 29 29 28 28 27 25 24 23 23 22 22 22 21 20 20 19 19 18 18 18 18 18 18 18 17 17 17 17 17 17 17 17 17 17 17 17 17 17 17 17 17 17 17 17
31 31 30 30 29 29 29 28 28 26 25 24 23 23 23 22 21 21 20 19 19 19 18 18 18 18 18 18 17 17 17 17 17 17 17 17 17 17 17 17 17 17 17 17 17 17 17 17 17
31 31 31 30 30 29 29 29 28 26 25 24 24 23 22 22 21 21 20 20 19 19 18 18 18 18 18 17 17 17 17 17 17 17 17 17 17 17 17 17 17 17 17 17 17 17 17 17 17
32 32 31 31 30 29 30 29 29 26 26 25 24 23 23 22 21 21 20 19 19 19 18 18 18 18 17 17 17 17 18 17 17 17 17 17 17 17 17 17 17 17 17 17 17 17 17 17 17
32 32 32 31 31 30 30 30 29 27 26 26 25 24 23 22 22 21 20 20 19 19 18 18 18 18 17 17 17 17 17 17 17 17 17 17 17 17 17 17 17 17 17 17 17 17 17 17 17
32 32 32 31 31 30 30 30 29 27 27 27 26 25 24 23 22 21 20 20 19 19 18 18 18 18 17 17 17 17 17 17 17 17 17 17 17 17 17 17 17 17 17 17 17 17 17 17 17
32 32 32 31 31 30 30 30 29 28 27 27 26 25 25 24 23 22 21 20 19 19 18 18 18 18 18 17 17 17 17 17 17 17 17 17 17 17 17 17 17 17 17 17 17 17 17 17 17
32 32 32 31 30 30 30 30 30 29 28 27 27 26 25 24 23 22 21 20 20 19 19 18 18 18 18 18 18 17 17 17 17 17 17 17 17 17 17 17 17 17 17 17 17 17 17 17 17
32 32 32 31 30 30 30 30 30 29 28 27 26 26 26 25 24 22 21 21 20 20 19 19 19 18 18 18 17 17 17 17 17 17 17 17 17 17 17 17 17 17 17 17 17 17 17 17 17
32 32 32 31 31 31 31 30 30 30 29 28 27 27 26 25 24 23 22 21 21 20 20 19 19 19 18 18 18 18 18 18 18 17 17 17 18 18 18 18 17 17 17 17 17 17 17 17 17
32 32 31 31 31 31 31 31 31 30 29 29 28 27 27 26 25 24 23 22 21 21 20 19 19 19 19 19 18 18 18 18 18 17 18 17 18 18 18 18 18 18 17 17 17 17 17 17 17
31 31 31 31 32 30 31 30 30 31 30 30 29 28 27 26 25 24 23 22 21 21 20 20 20 20 19 19 19 18 18 18 18 18 18 18 18 18 18 18 18 17 17 17 17 17 17 17 17
31 31 30 30 30 30 30 30 30 31 31 30 29 28 27 26 25 24 23 22 22 21 21 20 20 20 20 19 19 19 19 18 18 18 18 18 18 18 18 18 18 18 18 17 17 17 17 17 17
31 32 30 29 30 31 30 30 31 31 30 29 28 28 27 26 25 24 23 23 22 21 21 20 20 20 20 20 20 20 19 19 18 18 18 18 18 18 18 18 18 18 17 17 17 17 17 17 17
31 32 33 31 31 30 31 30 30 30 30 29 28 28 27 26 25 24 24 23 22 22 21 21 20 20 20 20 20 20 20 19 19 19 19 18 18 18 18 18 18 18 18 18 17 17 17 17 17
32 32 31 31 29 29 30 30 30 30 30 29 29 28 27 26 26 25 24 23 23 22 21 21 20 20 20 20 20 20 20 20 20 19 19 19 19 18 18 18 17 17 17 18 17 17 17 17 17
30 31 31 31 31 30 29 30 31 30 30 29 29 27 27 26 25 25 24 23 23 22 21 21 20 20 20 20 20 20 20 20 20 19 19 19 19 19 18 18 17 17 17 17 17 17 17 17 16
31 31 31 30 29 30 30 30 30 30 30 29 28 27 26 25 25 24 24 23 22 22 22 21 21 21 20 20 20 20 20 20 20 19 19 19 19 19 18 18 18 17 17 17 17 17 16 16 16
Wind_Speed
12 9 6 5 2 9 14 11 10 9 8 9 8 7 9 10 8 7 6 6 5 6 8 9 8 8 9 9 9 10 10 10 12 13 13 14 15 15 16 17 18 18 18 19 19 20 19 18 18
8 6 5 2 5 11 12 11 11 10 8 7 7 8 9 10 9 8 6 6 5 6 8 9 8 7 8 9 9 10 10 11 12 13 13 13 14 15 15 17 17 18 19 19 19 19 18 18 18
6 6 3 5 11 13 12 11 10 9 7 5 6 7 7 8 7 6 7 6 6 7 7 10 7 7 8 8 9 10 11 11 12 13 12 12 13 14 15 17 17 18 18 18 18 18 17 17 17
4 4 1 9 15 14 12 10 8 8 9 7 7 8 8 7 5 8 8 7 7 7 8 11 6 7 7 8 9 10 11 11 12 13 12 13 13 13 14 16 16 17 17 17 17 16 16 15 14
4 0 8 13 15 12 11 9 7 8 8 8 8 11 10 8 9 10 8 7 7 7 8 10 7 7 7 8 9 10 11 11 12 13 13 13 14 14 14 15 15 16 16 16 15 15 14 14 13
2 3 9 12 13 10 9 7 8 10 10 9 9 11 9 8 9 9 8 7 7 7 8 10 9 7 8 8 9 9 10 11 12 13 13 13 14 13 13 13 14 14 14 14 14 13 13 13 12
3 7 11 12 11 10 8 6 8 9 9 8 6 10 8 9 8 8 8 7 6 6 7 7 8 9 9 8 9 9 10 11 12 12 12 13 13 12 12 12 12 12 12 13 12 12 11 11 11
2 4 11 11 10 10 8 7 7 8 9 7 4 6 9 10 9 8 8 7 6 6 6 5 6 7 8 10 10 9 10 11 11 11 11 11 12 12 11 12 12 12 12 12 11 11 10 10 10
2 5 11 10 9 9 8 8 7 7 9 7 6 8 12 12 10 8 8 6 5 5 4 4 5 6 7 8 10 9 9 9 10 10 10 8 8 10 10 12 12 11 11 11 11 10 10 10 11
1 9 11 8 8 10 8 7 8 7 9 8 10 11 12 11 9 8 7 7 6 5 4 4 4 5 5 6 7 6 7 8 7 7 7 7 7 7 9 12 11 10 10 10 10 9 9 7 9
4 8 9 8 8 9 9 8 6 6 7 8 10 13 12 11 9 7 6 6 6 4 4 4 4 4 4 4 5 5 5 6 6 7 6 6 6 7 8 8 9 9 8 8 9 7 5 6 5
5 7 7 8 8 8 8 8 6 6 8 8 11 13 12 10 8 7 6 5 5 4 4 4 5 4 3 3 4 4 4 4 5 6 5 5 4 4 5 5 6 6 5 5 5 4 5 5 4
5 7 7 8 8 8 8 7 6 8 9 11 12 12 11 9 8 7 6 5 4 4 4 4 4 4 4 3 2 4 4 3 5 4 4 4 4 4 5 4 4 5 5 5 4 4 4 3 3
6 8 8 8 8 7 7 7 5 8 10 12 12 11 10 8 7 7 6 5 4 4 4 4 4 4 4 3 2 2 3 3 3 4 4 3 4 4 4 4 4 4 4 4 4 4 4 3 3
8 8 8 7 6 6 6 6 5 9 11 11 11 10 9 7 7 6 5 4 4 4 4 4 4 4 4 3 3 3 3 4 3 4 4 3 4 4 4 4 3 4 4 4 4 3 3 3 3
7 6 5 6 6 5 6 4 8 11 11 10 10 9 8 7 7 6 5 5 4 4 5 4 3 5 4 3 2 2 2 3 3 3 3 3 3 4 3 3 3 4 3 3 3 3 2 2 2
6 3 2 5 6 5 6 3 9 10 11 10 10 9 9 8 7 6 6 6 5 5 5 5 4 4 4 4 3 2 2 2 2 3 3 3 3 3 3 2 3 3 3 3 3 3 2 2 2
2 1 1 2 6 7 6 3 8 10 10 9 9 9 9 8 8 7 6 6 6 5 5 5 5 4 4 4 3 2 2 2 2 2 2 2 3 3 3 3 3 3 3 3 2 2 2 2 2
3 3 1 2 4 6 6 5 7 10 10 10 9 9 9 9 9 8 7 7 7 6 6 6 5 5 4 3 3 3 3 2 2 3 3 3 3 4 3 2 4 3 2 2 3 3 4 3 2
5 5 2 4 4 4 4 4 6 9 10 10 10 10 10 10 9 9 8 8 8 7 7 7 7 6 5 4 3 2 2 2 2 2 3 3 3 3 4 3 3 3 3 3 3 3 2 3 3
7 6 3 2 5 6 4 5 7 8 9 9 9 10 10 11 11 11 10 9 9 8 8 7 7 6 6 5 4 3 3 3 3 3 3 3 3 3 2 2 2 2 3 3 3 4 4 3 3
7 4 4 5 6 3 5 3 5 7 9 10 10 11 11 11 11 11 11 10 10 9 8 8 7 7 6 6 5 5 4 3 3 2 2 3 3 3 3 3 3 3 3 3 4 4 4 4 4
5 4 5 6 7 5 5 5 2 6 7 9 10 11 11 12 12 12 12 11 10 9 9 8 8 7 7 6 5 5 4 3 3 3 3 2 2 3 3 3 3 3 3 3 3 2 4 4 4
7 6 6 7 8 8 4 5 2 3 4 6 9 10 11 11 12 11 11 11 10 10 9 9 8 8 7 7 6 6 4 4 3 4 3 3 3 2 3 3 2 3 2 2 3 3 4 4 3
10 9 7 8 8 6 3 5 2 1 2 3 7 10 11 11 11 12 12 12 11 11 10 9 9 8 8 8 8 7 6 5 5 5 4 3 3 2 3 2 2 2 2 3 3 3 3 4 4
13 14 11 9 8 5 5 5 2 1 2 3 5 8 10 11 11 11 12 12 12 12 11 10 10 9 9 9 8 7 7 6 5 5 4 4 3 2 3 3 3 2 2 2 2 2 3 3 4
13 13 12 10 10 8 6 4 4 4 4 5 6 8 9 10 11 11 11 11 12 12 12 11 11 10 9 9 8 8 8 6 5 5 5 4 3 3 4 4 3 3 3 2 2 2 2 3 4
10 10 9 11 10 10 8 8 5 5 5 5 7 8 8 9 10 11 11 11 11 11 11 10 10 10 9 9 8 7 7 7 6 6 5 4 4 3 4 4 4 3 3 3 3 3 2 3 3
11 12 10 10 10 11 9 5 0 3 4 6 7 7 8 9 9 10 10 10 11 10 10 10 10 10 9 8 8 7 7 7 7 6 6 6 5 5 5 5 4 4 4 3 3 3 3 3 3
12 14 14 12 10 10 11 5 1 2 3 4 5 6 7 7 8 9 10 10 10 10 10 10 10 10 9 8 8 8 7 7 7 7 6 6 6 6 6 5 5 5 4 4 4 4 3 3 3
Wind_Direction
177 186 215 238 169 73 67 63 62 68 66 62 60 57 60 47 39 76 88 85 84 89 90 90 72 65 66 69 72 83 84 88 91 91 94 96 99 100 99 104 104 106 110 114 116 117 120 120 122
175 193 230 243 61 75 68 64 65 63 75 85 74 68 69 65 61 90 100 91 93 88 89 81 80 72 71 75 77 83 87 91 91 91 95 98 100 101 102 104 104 106 107 110 112 114 117 118 119
186 230 276 63 59 66 74 71 76 78 74 75 79 64 59 70 77 88 97 111 102 90 89 88 81 78 76 78 83 88 91 93 93 94 96 99 101 102 104 107 108 109 110 110 110 113 116 119 121
221 218 120 72 72 67 76 81 85 87 77 72 87 84 75 66 76 97 113 115 107 102 95 91 81 79 79 83 87 91 94 96 96 97 99 102 104 103 110 110 111 113 114 114 114 115 118 120 123
249 24 84 78 75 75 78 79 70 74 78 82 87 94 89 80 94 109 117 116 107 99 94 95 86 80 82 89 92 94 96 98 99 98 102 104 102 99 106 110 111 113 114 114 114 114 116 118 121
237 60 72 77 81 85 85 84 80 79 90 95 98 99 91 106 113 115 115 110 103 101 97 98 102 88 88 94 96 96 98 100 100 98 101 105 105 104 105 109 112 112 113 113 113 115 118 122 124
17 61 71 78 88 91 87 84 77 86 91 90 98 98 109 119 118 120 116 110 102 96 96 102 112 113 112 100 95 97 100 100 99 98 100 105 106 106 105 108 113 115 114 113 113 114 117 122 126
330 73 78 77 81 89 104 95 84 89 91 99 95 99 119 128 132 126 121 117 106 98 93 95 95 104 115 113 104 100 100 102 103 104 107 111 113 113 114 115 112 116 114 113 113 112 113 118 125
262 72 72 71 77 100 119 111 98 95 107 100 84 90 116 131 138 137 130 121 111 101 93 91 96 103 109 110 114 119 116 112 120 116 117 127 118 115 119 106 110 113 114 116 113 113 116 123 127
25 68 71 71 79 106 120 111 118 124 116 111 110 111 126 139 145 143 136 131 126 120 114 102 96 100 107 109 116 120 117 113 111 110 119 119 112 111 112 114 115 116 117 121 121 128 144 156 134
72 71 86 94 95 108 120 119 125 120 106 114 129 135 142 144 147 143 133 127 120 124 116 113 107 110 113 114 118 108 109 112 115 111 118 116 122 124 124 125 127 130 139 132 136 155 140 124 114
98 89 100 108 114 117 117 120 116 90 90 117 132 141 147 150 146 142 136 132 127 123 116 109 112 111 108 110 115 124 123 122 117 117 122 124 123 120 119 129 128 136 134 132 140 128 120 118 122
114 111 112 120 125 119 121 115 108 107 111 127 135 144 150 150 145 141 138 135 136 138 135 123 117 119 127 129 137 120 118 118 120 119 121 131 134 127 125 122 128 132 132 142 136 120 121 127 135
117 124 125 131 130 137 134 124 125 124 132 137 144 150 153 152 151 149 153 152 153 153 146 134 135 132 133 138 136 125 131 134 125 127 122 136 125 124 132 139 137 134 134 129 136 135 138 141 131
142 138 138 147 153 155 160 138 134 139 148 150 152 154 155 158 161 165 164 166 160 158 153 150 151 140 136 136 138 133 138 128 121 116 125 132 128 129 144 139 149 134 134 141 148 142 151 154 150
172 178 155 156 178 177 219 113 138 156 164 161 160 161 165 167 171 169 167 173 168 163 160 167 161 146 146 137 128 125 115 112 124 129 129 130 129 142 153 141 140 140 159 161 156 172 161 149 154
193 197 118 144 186 191 220 123 145 168 175 172 172 171 173 170 177 173 173 175 175 173 170 170 166 161 160 152 153 147 129 127 132 130 130 133 144 155 165 148 138 171 170 175 189 156 175 159 157
191 204 139 144 174 202 213 172 154 176 186 183 181 180 180 179 179 177 179 176 177 178 178 177 175 170 171 167 163 164 160 166 150 141 140 149 152 162 164 155 156 177 172 175 172 158 175 184 186
259 254 234 113 162 201 215 207 180 180 193 193 190 189 189 186 177 177 182 183 179 180 181 182 183 174 181 181 187 173 169 169 156 152 147 160 166 160 172 169 153 180 177 182 174 179 178 184 169
229 236 205 142 163 208 210 215 196 192 199 202 200 196 196 190 182 182 186 187 187 185 186 187 188 184 189 180 183 178 166 166 156 144 137 162 174 177 173 173 184 178 180 185 182 186 209 197 191
224 244 250 172 170 199 223 201 189 192 202 206 210 206 201 198 191 187 191 192 191 189 191 191 187 185 190 183 182 173 172 185 166 158 155 163 170 171 173 181 200 191 208 197 200 203 211 214 207
224 229 227 200 214 209 241 265 168 185 197 206 208 207 204 198 195 192 191 193 193 190 187 186 183 185 184 188 194 192 188 179 161 167 150 156 168 179 184 192 201 208 214 206 215 203 217 223 217
226 194 212 219 240 253 230 269 156 173 204 205 202 201 200 195 193 192 192 190 190 187 184 180 181 182 183 187 184 194 199 188 173 169 160 178 171 186 188 189 195 207 217 215 227 213 226 225 236
173 174 191 222 241 248 244 261 239 179 210 200 190 191 193 190 189 189 188 186 187 184 182 179 178 184 183 186 186 192 193 194 185 184 181 185 176 182 178 188 199 214 226 222 220 222 220 229 233
205 219 228 231 233 239 189 246 263 90 176 199 185 182 184 185 184 185 185 184 186 185 183 180 178 183 186 188 190 190 192 193 195 203 192 196 188 178 170 183 190 207 212 226 229 220 232 225 221
219 234 243 255 255 235 196 235 222 152 164 178 181 178 178 181 183 184 185 185 187 187 184 183 183 187 189 190 190 191 193 197 195 198 204 195 197 187 171 181 184 187 198 208 210 231 227 219 225
220 231 248 253 257 258 235 223 226 196 192 182 175 174 178 181 182 183 184 186 186 187 187 187 187 189 191 192 190 191 194 199 192 187 200 198 196 186 176 184 185 188 195 203 205 218 230 217 221
241 230 231 244 247 253 245 235 230 204 201 188 183 180 177 179 180 182 183 184 185 186 184 188 189 192 194 192 193 188 191 194 193 196 192 193 190 184 184 192 195 198 200 201 214 209 211 215 219
207 219 229 241 251 257 258 246 199 206 209 200 189 182 174 174 175 176 179 181 181 182 181 184 189 191 194 195 193 191 189 190 191 195 195 192 190 185 189 195 201 205 208 207 212 223 212 216 219
225 227 223 233 240 250 265 259 116 180 201 193 180 168 166 169 170 171 172 174 179 183 184 184 188 191 193 190 188 188 189 190 193 193 193 188 185 187 187 193 199 205 207 209 211 219 215 222 229
Height
1497 1496 1497 1498 1490 1493 1503 1503 1501 1503 1506 1510 1511 1510 1511 1513 1514 1524 1527 1526 1526 1526 1525 1524 1522 1522 1521 1521 1520 1519 1519 1518 1518 1518 1519 1519 1519 1520 1520 1521 1521 1522 1523 1525 1527 1530 1532 1534 1536
1498 1498 1499 1494 1489 1503 1509 1504 1505 1508 1510 1512 1513 1513 1514 1518 1522 1525 1527 1527 1527 1527 1527 1525 1524 1523 1523 1522 1522 1521 1520 1520 1520 1521 1521 1522 1522 1523 1523 1523 1524 1525 1527 1529 1531 1533 1535 1537 1540
1499 1499 1497 1488 1494 1503 1509 1506 1509 1511 1513 1513 1514 1516 1518 1522 1525 1527 1528 1528 1529 1528 1528 1526 1525 1525 1524 1524 1523 1523 1522 1522 1522 1523 1523 1524 1525 1525 1526 1527 1528 1529 1531 1533 1535 1537 1539 1541 1543
1501 1500 1495 1492 1502 1503 1504 1507 1509 1510 1514 1515 1515 1518 1523 1527 1528 1529 1529 1530 1530 1530 1530 1528 1527 1526 1525 1525 1525 1525 1525 1525 1525 1525 1526 1526 1527 1528 1529 1530 1532 1533 1535 1536 1538 1540 1543 1545 1546
1501 1495 1491 1498 1504 1505 1506 1509 1510 1510 1514 1517 1517 1520 1526 1530 1530 1530 1531 1532 1532 1532 1532 1530 1528 1527 1527 1526 1527 1527 1527 1527 1527 1528 1528 1529 1530 1531 1532 1533 1535 1537 1538 1539 1541 1544 1545 1547 1549
1498 1491 1495 1504 1507 1507 1509 1511 1512 1513 1516 1519 1519 1522 1528 1532 1532 1532 1533 1533 1534 1534 1533 1531 1529 1529 1528 1528 1528 1528 1529 1529 1530 1530 1530 1531 1533 1534 1535 1537 1538 1540 1541 1543 1545 1547 1548 1550 1552
1497 1491 1498 1502 1506 1508 1511 1513 1513 1515 1518 1520 1521 1523 1529 1532 1533 1534 1534 1535 1535 1535 1535 1534 1533 1531 1530 1530 1530 1530 1530 1531 1532 1533 1534 1535 1536 1537 1539 1540 1541 1542 1544 1546 1548 1549 1551 1552 1554
1500 1492 1497 1500 1504 1509 1512 1514 1516 1517 1520 1523 1523 1523 1528 1533 1534 1535 1535 1536 1536 1536 1536 1535 1535 1534 1534 1533 1532 1532 1533 1533 1534 1535 1536 1538 1539 1540 1541 1542 1543 1544 1546 1548 1550 1552 1553 1554 1555
1500 1494 1500 1501 1503 1508 1512 1514 1518 1520 1522 1524 1525 1526 1530 1533 1534 1536 1536 1537 1537 1537 1537 1537 1536 1536 1536 1536 1535 1535 1535 1536 1537 1538 1539 1541 1543 1544 1545 1545 1546 1547 1549 1551 1552 1554 1555 1556 1557
1498 1497 1502 1502 1502 1506 1512 1514 1517 1519 1521 1524 1527 1530 1532 1534 1535 1536 1537 1538 1538 1538 1538 1537 1537 1537 1538 1538 1538 1538 1539 1539 1540 1541 1542 1544 1544 1546 1547 1548 1549 1550 1552 1553 1554 1556 1557 1559 1560
1498 1499 1502 1504 1506 1508 1512 1515 1517 1517 1519 1523 1527 1530 1533 1535 1536 1537 1538 1539 1539 1540 1539 1539 1539 1538 1539 1539 1540 1540 1541 1542 1543 1543 1544 1545 1547 1548 1549 1551 1552 1553 1554 1556 1556 1558 1560 1561 1562
1501 1503 1504 1506 1509 1510 1512 1515 1517 1518 1522 1525 1528 1531 1533 1535 1536 1538 1539 1540 1540 1540 1540 1541 1540 1539 1539 1540 1542 1542 1543 1544 1545 1545 1546 1547 1548 1549 1551 1552 1554 1555 1556 1557 1559 1560 1561 1562 1563
1501 1504 1507 1509 1510 1512 1514 1515 1518 1521 1524 1526 1529 1532 1533 1535 1537 1538 1539 1540 1541 1541 1541 1541 1540 1540 1540 1541 1542 1544 1544 1546 1546 1547 1547 1548 1550 1551 1552 1553 1554 1556 1557 1558 1559 1560 1561 1562 1563
1503 1505 1507 1509 1511 1513 1514 1516 1519 1522 1525 1528 1530 1532 1534 1535 1537 1538 1540 1540 1541 1541 1542 1542 1541 1541 1541 1541 1542 1544 1545 1546 1548 1548 1549 1550 1551 1552 1553 1554 1555 1557 1558 1559 1560 1561 1562 1562 1564
1504 1505 1507 1509 1511 1513 1513 1515 1517 1522 1525 1528 1530 1532 1534 1536 1537 1538 1539 1540 1541 1542 1542 1542 1542 1542 1542 1543 1544 1545 1546 1547 1548 1549 1550 1550 1552 1552 1553 1555 1556 1557 1558 1559 1560 1561 1562 1563 1564
1502 1502 1505 1507 1509 1512 1513 1514 1517 1522 1524 1527 1529 1532 1534 1536 1537 1538 1539 1540 1541 1541 1542 1542 1543 1543 1543 1544 1544 1546 1547 1548 1549 1550 1550 1551 1552 1552 1554 1555 1556 1557 1558 1559 1560 1561 1562 1563 1563
1499 1501 1503 1506 1507 1509 1509 1511 1515 1520 1523 1525 1528 1530 1533 1535 1537 1538 1539 1540 1540 1541 1542 1542 1543 1543 1544 1544 1545 1546 1547 1547 1549 1550 1551 1551 1552 1553 1554 1555 1556 1557 1558 1559 1560 1561 1561 1562 1563
1501 1499 1501 1504 1504 1506 1508 1508 1513 1518 1520 1523 1526 1529 1531 1533 1536 1537 1538 1539 1540 1540 1541 1542 1542 1543 1544 1545 1545 1546 1547 1548 1548 1549 1550 1551 1552 1552 1554 1555 1555 1556 1557 1558 1559 1559 1560 1561 1561
1495 1498 1501 1502 1502 1505 1507 1508 1510 1515 1518 1520 1523 1526 1529 1532 1534 1536 1537 1538 1539 1540 1540 1541 1542 1542 1543 1545 1546 1546 1548 1548 1549 1549 1550 1550 1551 1552 1553 1554 1555 1555 1557 1557 1558 1558 1559 1560 1560
1495 1499 1500 1502 1503 1504 1505 1506 1506 1511 1515 1517 1520 1524 1527 1529 1532 1534 1536 1537 1538 1539 1539 1540 1541 1542 1543 1544 1545 1546 1547 1548 1548 1549 1549 1550 1551 1552 1553 1553 1555 1555 1555 1556 1557 1557 1558 1559 1559
1496 1497 1498 1502 1503 1503 1504 1507 1505 1508 1512 1516 1518 1520 1523 1526 1529 1532 1534 1535 1536 1537 1538 1539 1540 1541 1542 1543 1544 1545 1546 1547 1548 1549 1549 1549 1550 1551 1552 1552 1553 1554 1555 1555 1555 1556 1556 1557 1558
1498 1493 1496 1500 1503 1502 1503 1509 1503 1503 1507 1511 1514 1516 1519 1522 1526 1529 1531 1533 1535 1536 1537 1538 1539 1540 1541 1542 1543 1545 1546 1547 1547 1548 1549 1549 1550 1550 1551 1552 1552 1553 1553 1553 1554 1555 1555 1556 1556
1493 1493 1495 1497 1499 1501 1500 1505 1500 1500 1504 1504 1508 1512 1515 1519 1522 1525 1528 1531 1533 1535 1536 1537 1538 1538 1539 1541 1542 1543 1545 1546 1547 1547 1548 1549 1549 1550 1550 1551 1551 1551 1552 1552 1552 1552 1553 1554 1555
1493 1495 1497 1496 1496 1510 1503 1506 1505 1495 1498 1499 1503 1508 1512 1515 1519 1523 1526 1529 1531 1533 1534 1536 1536 1537 1538 1539 1540 1542 1543 1544 1545 1546 1547 1548 1549 1549 1550 1550 1550 1550 1551 1550 1550 1551 1551 1552 1552
1492 1497 1508 1512 1511 1508 1499 1504 1502 1492 1494 1497 1500 1505 1509 1513 1516 1520 1523 1526 1528 1531 1532 1534 1535 1536 1537 1538 1539 1540 1541 1543 1543 1545 1546 1547 1548 1549 1548 1549 1549 1549 1549 1549 1549 1549 1549 1549 1550
1488 1490 1507 1518 1514 1503 1501 1503 1494 1491 1495 1498 1500 1503 1507 1510 1514 1517 1520 1523 1526 1528 1530 1532 1533 1534 1536 1536 1537 1539 1540 1542 1543 1543 1545 1545 1546 1547 1547 1547 1547 1548 1548 1548 1547 1547 1547 1547 1548
1486 1487 1481 1493 1498 1504 1498 1495 1491 1490 1493 1496 1499 1501 1504 1508 1511 1515 1518 1521 1523 1526 1528 1530 1531 1532 1534 1535 1536 1537 1538 1540 1541 1541 1542 1543 1544 1545 1545 1546 1546 1546 1546 1546 1546 1546 1546 1546 1546
1480 1480 1487 1493 1510 1512 1502 1497 1493 1490 1491 1493 1496 1499 1502 1506 1509 1512 1515 1518 1521 1523 1525 1527 1529 1530 1532 1533 1534 1536 1537 1538 1539 1540 1540 1541 1542 1543 1544 1545 1545 1545 1545 1545 1545 1545 1544 1544 1544
1485 1485 1486 1487 1490 1505 1508 1498 1481 1486 1488 1490 1494 1498 1501 1504 1507 1510 1513 1516 1519 1521 1523 1525 1527 1528 1530 1531 1533 1534 1535 1536 1538 1538 1539 1540 1541 1541 1542 1543 1543 1544 1544 1544 1543 1544 1543 1543 1543
1475 1478 1483 1495 1497 1493 1495 1496 1481 1484 1487 1490 1493 1497 1500 1503 1505 1508 1511 1514 1516 1519 1521 1523 1524 1526 1528 1530 1531 1532 1533 1534 1536 1537 1537 1538 1539 1539 1540 1540 1541 1541 1542 1542 1541 1542 1542 1542 1541